FO-29
1 24278U 96046B 13220.11912409 -.00000043 00000-0 -84602-5 0 1742
2 24278 098.5506 271.7252 0350813 029.7566 003.6630 13.53004184838331
SO-33
1 25509U 98061B 13220.85486019 .00000262 00000-0 37582-4 0 5562
2 25509 031.4342 129.4122 0351431 259.0045 169.9241 14.29103750772430
RS-22
1 27939U 03042A 13220.85964314 .00000478 00000-0 98435-4 0 6581
2 27939 097.7996 045.9600 0014009 024.9774 335.2103 14.64530750527006
VO-52
1 28650U 05017B 13220.85844574 .00000770 00000-0 97846-4 0 4949
2 28650 097.5680 236.7595 0027522 107.4564 351.9366 14.84032350446894
HO-68
1 36122U 09072B 13220.72269976 -.00000044 00000-0 00000 0 0 7961
2 36122 100.3016 276.4369 0007244 232.7216 127.3241 13.16306024175328
UO-11
1 14781U 84021B 13220.20089247 .00000412 00000-0 59980-4 0 2519
2 14781 097.8982 280.7587 0010344 118.2131 242.0127 14.80967817581634
AO-16
1 20439U 90005D 13220.83229946 .00000065 00000-0 40143-4 0 8124
2 20439 098.4725 159.6433 0010823 009.8984 062.8729 14.32194319229776
LO-19
1 20442U 90005G 13220.78535601 .00000058 00000-0 37054-4 0 7476
2 20442 098.4422 161.2156 0011554 359.6842 032.9752 14.32404148229965
AO-27
1 22825U 93061C 13220.76200044 .00000051 00000-0 36962-4 0 4507
2 22825 098.6207 164.2387 0009452 130.4637 260.1427 14.29580336 36145
IO-26
1 22826U 93061D 13220.82182811 .00000057 00000-0 39353-4 0 2068
2 22826 098.6149 164.5740 0010023 124.3918 269.4696 14.29866347 36281
GO-32
1 25397U 98043D 13220.84669198 .00000013 00000-0 24241-4 0 1329
2 25397 098.4203 186.3275 0002351 123.2334 319.6317 14.23352626783434
NO-44
1 26931U 01043C 13220.84728183 .00000005 00000-0 34089-4 0 3906
2 26931 067.0522 123.7583 0007857 273.1608 152.6770 14.29947278618958
SO-50
1 27607U 02058C 13219.85210784 .00000279 00000-0 64043-4 0 1359
2 27607 064.5568 106.8459 0039230 145.9843 284.9272 14.73020688571323
CO-55
1 27844U 03031E 13220.79625669 .00000124 00000-0 76780-4 0 7122
2 27844 098.7021 229.1048 0010998 098.4291 345.8852 14.21251077524208
CO-57
1 27848U 03031J 13220.02252181 .00000110 00000-0 70694-4 0 6567
2 27848 098.7107 227.8823 0010913 105.8877 288.1794 14.20972843524027
AO-51
1 28375U 04025K 13220.80301890 .00000074 00000-0 35161-4 0 6249
2 28375 098.2057 174.1644 0082867 216.1249 175.3267 14.41145970478917
CP3
1 31129U 07012N 13219.67198405 .00000343 00000-0 87334-4 0 5223
2 31129 097.9015 209.4143 0098494 266.9221 151.7691 14.53757449334474
CO-65
1 32785U 08021C 13220.84446957 .00000652 00000-0 84346-4 0 7058
2 32785 097.7467 276.8687 0015754 132.5591 340.7464 14.84022814285680
PRISM
1 33493U 09002B 13220.79806089 .00001840 00000-0 21520-3 0 625
2 33493 098.2225 019.4903 0018697 026.0106 334.2040 14.86282698245735
SOHLA-1
1 33496U 09002E 13219.93500281 .00000218 00000-0 44367-4 0 1159
2 33496 098.1400 335.8328 0007541 149.6709 349.2368 14.70339183243478
SO-67
1 35870U 09049F 13220.84825388 .00004189 00000-0 15763-3 0 3136
2 35870 097.1888 247.7252 0003489 111.1054 013.5081 15.27647824216296
TISAT-1
1 36799U 10035E 13220.79795070 .00001279 00000-0 16193-3 0 3339
2 36799 098.0334 305.8032 0012984 256.2649 103.7111 14.83518488166379
STUDSAT
1 36801U 10035G 13218.92706685 .00006165 00000-0 66095-3 0 6630
2 36801 098.0453 307.5481 0010510 235.9228 179.2088 14.88976266166268
ALMASAT-1
1 38078U 12006B 13220.66213447 .00024243 00000-0 61010-3 0 5077
2 38078 069.4698 079.0177 0683356 079.7080 288.0195 14.27248859 76728
XATCOBEO
1 38082U 12006F 13220.68796846 .00056570 34858-5 10592-2 0 3902
2 38082 069.4664 047.8406 0544543 062.5884 302.9539 14.62899226 77582
SOMP
1 39135U 13015F 13220.68093977 .00002689 00000-0 22494-3 0 2350
2 39135 064.8786 043.7016 0007633 201.7531 231.3498 15.00596519 16706
CUBEBUG-1
1 39153U 13018D 13220.85986889 .00000663 00000-0 10253-3 0 2940
2 39153 098.0710 296.6028 0016812 275.5643 084.3642 14.76537514 15456
ESTCUBE-1
1 39161U 13021C 13220.74780072 .00000583 00000-0 10777-3 0 2602
2 39161 098.1271 298.7254 0009399 313.4197 046.6218 14.69051214 13717
NOAA-10
1 16969U 86073A 13220.11637058 .00000027 00000-0 28247-4 0 4546
2 16969 098.5434 246.8177 0013474 094.9489 301.2183 14.27656208399351
NOAA-11
1 19531U 88089A 13220.49589214 .00000032 00000-0 38905-4 0 4621
2 19531 098.7086 302.2914 0012393 111.8527 319.2682 14.15024045283520
NOAA-12
1 21263U 91032A 13220.48531071 .00000010 00000-0 22744-4 0 9293
2 21263 098.6953 245.4512 0014814 070.8134 064.7789 14.25580199156007
MET-3/5
1 21655U 91056A 13219.75588876 -.00000431 00000-0 -11503-2 0 7541
2 21655 082.5540 217.8552 0013145 006.8480 353.2819 13.17052221 56720
MET-2/21
1 22782U 93055A 13219.76263940 .00000005 00000-0 -90905-5 0 8113
2 22782 082.5469 061.9977 0023480 066.7429 049.7801 13.83709844 6773
OKEAN-4
1 23317U 94066A 13220.78587903 .00000609 00000-0 68995-4 0 2906
2 23317 082.5410 000.5547 0022001 055.9238 095.8811 14.84572968 16740
NOAA-14
1 23455U 94089A 13220.16037884 .00000076 00000-0 63370-4 0 4096
2 23455 098.8010 303.8092 0009283 203.7322 242.6893 14.13915269959719
NOAA-15
1 25338U 98030A 13220.09891005 .00000128 00000-0 73110-4 0 8313
2 25338 098.7287 210.0309 0009985 343.4499 080.8570 14.25251652792241
RESURS
1 25394U 98043A 13220.83495595 -.00000019 00000-0 97289-5 0 4405
2 25394 098.3672 194.1630 0002688 099.4566 318.5183 14.24333400783851
FENGYUN1
1 25730U 99025A 13219.95328449 .00000270 00000-0 17579-3 0 9342
2 25730 098.8809 178.8368 0023848 263.6020 127.5692 14.10593089733348
OKEAN-0
1 25860U 99039A 13220.08825671 .00000355 00000-0 60686-4 0 147
2 25860 097.9954 181.8572 0001281 076.4634 340.2768 14.74660231756002
NOAA-16
1 26536U 00055A 13220.16971075 .00000008 00000-0 29033-4 0 3157
2 26536 099.0379 273.4394 0010059 354.6222 038.9512 14.12904414663915
NOAA-17
1 27453U 02032A 13220.10912367 .00000037 00000-0 33280-4 0 2268
2 27453 098.3130 231.4375 0011744 020.1503 023.7790 14.24609047578117
NOAA-18
1 28654U 05018A 13220.10803795 .00000168 00000-0 11693-3 0 7132
2 28654 099.1049 189.0840 0015297 065.7154 064.7615 14.11847189423384
NOAA-19
1 33591U 09005A 13219.99753329 .00000083 00000-0 70080-4 0 8953
2 33591 098.9055 161.6604 0012894 284.7127 208.2215 14.11534213231807
HUBBLE
1 20580U 90037B 13220.41394208 .00001390 00000-0 86459-4 0 2995
2 20580 028.4709 290.4198 0003520 181.9712 178.0797 15.03821998 77569
ISS
1 25544U 98067A 13220.77567130 .00004883 00000-0 92805-4 0 3539
2 25544 051.6489 207.7649 0003610 287.7002 069.2197 15.50212290842854
CO-58
1 28895U 05043F 13220.60560967 .00000385 00000-0 87140-4 0 5425
2 28895 097.8645 073.3562 0016111 276.5474 083.3893 14.61187261414598
FALCON
1 30776U 07006E 13220.14580193 .00002906 00000-0 17244-3 0 6697
2 30776 035.4296 243.2070 0000403 004.8869 060.2708 15.11090934353281
MAST
1 31126U 07012K 13220.77175591 .00000203 00000-0 55325-4 0 8227
2 31126 097.8849 213.7035 0091897 248.2595 189.5704 14.54638764334967
CAPE1
1 31130U 07012P 13220.84505613 .00000253 00000-0 67315-4 0 8252
2 31130 097.9024 210.1482 0099006 264.2585 094.7318 14.53576880334420
COMPASS
1 32787U 08021E 13220.67257427 .00001323 00000-0 15824-3 0 6962
2 32787 097.7478 277.8706 0016144 129.5352 230.7293 14.85717915285752
AAUSAT2
1 32788U 08021F 13220.73188452 .00001496 00000-0 17610-3 0 6811
2 32788 097.7487 278.6005 0015668 128.7436 231.5183 14.86197321285805
DO-64
1 32789U 08021G 13220.80939169 .00002793 00000-0 30226-3 0 7112
2 32789 097.7644 282.7682 0015160 121.2685 332.1101 14.88979447285952
